DECAYED

STARLINK-1170, 45073 (Decayed)

Orbit data source: Space-Track

STARLINK-1170, 45073 was a payload satellite owned by SpaceX/Seattle (US) in LEO that was launched on Wed, 29 Jan 2020 UTC via an FALCON 9 launch vehicle from the Air Force Eastern Test Range (AFETR). Payload-class satellites include a variety of spacecraft equipped with specific instruments for various scientific and technological missions. These include communications satellites like Starlink; space stations such as the ISS; scientific satellites like the Hubble; Earth observation satellites from companies like Planet Labs, Umbra, and HawkEye 360; GPS; miniature CubeSats for education and research; and military/defense satellites.

Not visible in the next 10 days
Identifier
45073, 2020-006AF
Orbit
Decayed
Country
Flag of USUS
Related business
Manufacturer
SpaceX/Seattle
Mission
Decayed Commercial Communications
Bus & Motor
STARLINK, Unknown motor
Mass
260 kg wet, ~248 kg dry
Launch date (UTC)
2020-01-29 (6 years ago)
Launch vehicle
FALCON 9
Launch site
Air Force Eastern Test Range (AFETR)
Object type
Payload
Rocket body
Debris
Shape & HBR
Box + 1 Pan, 10.1 m
Radar Cross Section
13.562 m², Large (>1 m²)

Expand to show TLE details & history
Last TLE update: 1 year ago

TLE from 1 year ago
0 STARLINK-1170
1 45073U 20006AF  25167.35124082  .13171452  12409-4  29598-3 0  9993
2 45073  53.0281 318.6000 0009060 220.7062 215.5118 16.45846750297818
Epoch: 2025-06-16T08:25Z
TLE epoch observation values (Epoch: 2025-06-16T08:25:47.206Z)
Latitude
51.02805°
Longitude
-5.01379°
Altitude
161.1 km
Speed
7.813 km/s
True Right ascension
01h 45m 11s
True Declination
50° 50' 40"
Sunlit
Object was in daylight at epoch
Visualization orbit readout
Latitude
Unknown
Longitude
Unknown
Altitude
Unknown
Speed
Unknown
Apparent Right ascension
Unknown
Apparent Declination
Unknown
Sunlit
N/A
Visualization observer readout
Local Sidereal Time
21:22:46
Azimuth
Unknown
Elevation
Unknown
Doppler factor
Unknown
Orbital elements
Apogee altitude
156.502 km
Perigee altitude
144.672 km
Semi-major axis
6,528.724 km
Eccentricity
0.00091
Inclination
53.0281°
RAAN
318.6°
Arg. of periapsis
220.7062°
True anomaly
215.45155°
Mean anomaly
215.5118°
Eccentric anomaly
215.48167°
Mean motion
4.11435 °/min
Orbital period
87.5 mins
BSTAR
0.00029598
Loading maneuver chart data...
Computing Atmospheric mass density...

Documentation

Showing up to 5 results
|